Hourly Weather Ryabcevo

Today, 15 April, Thursday

Time Temperature Precipitation Wind Pressure Humidity
00:00 +13°C° 0 mm 2 mps 744 mmHg 55%
01:00 +12°C° 0 mm 2 mps 743 mmHg 56%
02:00 +12°C° 0 mm 2 mps 743 mmHg 58%
03:00 +12°C° 0 mm 2 mps 743 mmHg 59%
04:00 +10°C° 0 mm 2 mps 743 mmHg 62%
05:00 +10°C° 0 mm 3 mps 743 mmHg 64%
06:00 +9°C° 0 mm 3 mps 743 mmHg 66%
07:00 +10°C° 0 mm 3 mps 743 mmHg 62%
08:00 +12°C° 0 mm 3 mps 743 mmHg 58%
09:00 +13°C° 0 mm 3 mps 743 mmHg 54%
10:00 +16°C° 0 mm 3 mps 743 mmHg 50%
11:00 +17°C° 0 mm 4 mps 743 mmHg 45%
12:00 +19°C° 0 mm 4 mps 743 mmHg 40%
13:00 +19°C° 0 mm 4 mps 743 mmHg 38%
14:00 +20°C° 0 mm 4 mps 742 mmHg 36%
15:00 +20°C° 0 mm 5 mps 742 mmHg 34%
16:00 +20°C° 0 mm 4 mps 742 mmHg 37%
17:00 +19°C° 0 mm 4 mps 742 mmHg 40%
18:00 +19°C° 0 mm 3 mps 742 mmHg 43%
19:00 +17°C° 0.1 mm 2 mps 742 mmHg 54%
20:00 +15°C° 0.1 mm 2 mps 742 mmHg 64%
21:00 +13°C° 0.1 mm 1 mps 743 mmHg 75%
22:00 +13°C° 0.1 mm 1 mps 743 mmHg 76%
23:00 +12°C° 0.1 mm 1 mps 743 mmHg 78%

Tomorrow, 16 April, Friday

Time Temperature Precipitation Wind Pressure Humidity
00:00 +12°C° 0.1 mm 1 mps 743 mmHg 80%
01:00 +12°C° 0 mm 1 mps 743 mmHg 80%
02:00 +12°C° 0 mm 1 mps 743 mmHg 81%
03:00 +11°C° 0 mm 1 mps 743 mmHg 81%
04:00 +11°C° 0 mm 1 mps 743 mmHg 82%
05:00 +11°C° 0 mm 1 mps 744 mmHg 82%
06:00 +10°C° 0 mm 2 mps 744 mmHg 83%
07:00 +10°C° 0.1 mm 2 mps 744 mmHg 80%
08:00 +11°C° 0.1 mm 3 mps 744 mmHg 77%
09:00 +11°C° 0.1 mm 4 mps 744 mmHg 74%
10:00 +12°C° 0.1 mm 4 mps 745 mmHg 70%
11:00 +13°C° 0.1 mm 4 mps 745 mmHg 66%
12:00 +15°C° 0.1 mm 4 mps 745 mmHg 62%
13:00 +15°C° 0 mm 4 mps 745 mmHg 58%
14:00 +16°C° 0 mm 5 mps 745 mmHg 55%
15:00 +17°C° 0 mm 5 mps 745 mmHg 51%
16:00 +17°C° 0.3 mm 5 mps 745 mmHg 54%
17:00 +16°C° 0.3 mm 5 mps 744 mmHg 56%
18:00 +16°C° 0.3 mm 5 mps 744 mmHg 59%
19:00 +15°C° 0.5 mm 5 mps 744 mmHg 64%
20:00 +14°C° 0.5 mm 5 mps 745 mmHg 69%
21:00 +13°C° 0.5 mm 6 mps 745 mmHg 74%
22:00 +12°C° 0.1 mm 5 mps 745 mmHg 79%
23:00 +10°C° 0.1 mm 5 mps 745 mmHg 83%

Day after tomorrow, 17 April, Saturday

Time Temperature Precipitation Wind Pressure Humidity
00:00 +9°C° 0.1 mm 5 mps 745 mmHg 87%
01:00 +8°C° 0 mm 5 mps 745 mmHg 89%
02:00 +8°C° 0 mm 5 mps 746 mmHg 90%
03:00 +7°C° 0 mm 5 mps 746 mmHg 92%
04:00 +7°C° 0.1 mm 5 mps 746 mmHg 93%
05:00 +7°C° 0.1 mm 5 mps 746 mmHg 94%
06:00 +6°C° 0.1 mm 4 mps 746 mmHg 94%
07:00 +7°C° 0 mm 5 mps 747 mmHg 89%
08:00 +8°C° 0 mm 6 mps 747 mmHg 84%
09:00 +9°C° 0 mm 6 mps 747 mmHg 79%
10:00 +10°C° 0 mm 7 mps 747 mmHg 73%
11:00 +12°C° 0 mm 7 mps 747 mmHg 67%
12:00 +14°C° 0 mm 7 mps 747 mmHg 60%
13:00 +15°C° 0 mm 8 mps 747 mmHg 58%
14:00 +15°C° 0 mm 8 mps 746 mmHg 55%
15:00 +16°C° 0 mm 8 mps 746 mmHg 53%
16:00 +15°C° 0.1 mm 8 mps 746 mmHg 55%
17:00 +15°C° 0.1 mm 8 mps 747 mmHg 58%
18:00 +13°C° 0.1 mm 8 mps 747 mmHg 60%
19:00 +12°C° 0 mm 7 mps 747 mmHg 62%
20:00 +11°C° 0 mm 7 mps 747 mmHg 64%
21:00 +10°C° 0 mm 7 mps 747 mmHg 67%
22:00 +9°C° 0 mm 6 mps 748 mmHg 66%
23:00 +8°C° 0 mm 6 mps 748 mmHg 65%

18 April, Sunday

Time Temperature Precipitation Wind Pressure Humidity
00:00 +7°C° 0 mm 6 mps 748 mmHg 64%
01:00 +6°C° 0 mm 5 mps 748 mmHg 64%
02:00 +6°C° 0 mm 5 mps 749 mmHg 64%
03:00 +5°C° 0 mm 5 mps 749 mmHg 64%
04:00 +5°C° 0 mm 5 mps 749 mmHg 66%
05:00 +3°C° 0 mm 5 mps 749 mmHg 68%
06:00 +3°C° 0 mm 5 mps 750 mmHg 70%
07:00 +5°C° 0 mm 5 mps 750 mmHg 64%
08:00 +5°C° 0 mm 6 mps 750 mmHg 59%
09:00 +7°C° 0 mm 6 mps 750 mmHg 54%
10:00 +9°C° 0 mm 6 mps 750 mmHg 49%
11:00 +10°C° 0 mm 6 mps 751 mmHg 45%
12:00 +11°C° 0 mm 6 mps 751 mmHg 40%
13:00 +11°C° 0 mm 6 mps 751 mmHg 39%
14:00 +13°C° 0 mm 5 mps 751 mmHg 37%
15:00 +13°C° 0 mm 5 mps 751 mmHg 35%
16:00 +13°C° 0 mm 5 mps 751 mmHg 37%
17:00 +13°C° 0 mm 5 mps 751 mmHg 39%
18:00 +13°C° 0 mm 4 mps 751 mmHg 41%
19:00 +11°C° 0 mm 4 mps 751 mmHg 46%
20:00 +10°C° 0 mm 4 mps 752 mmHg 52%
21:00 +9°C° 0 mm 3 mps 752 mmHg 57%
22:00 +8°C° 0 mm 3 mps 752 mmHg 60%
23:00 +7°C° 0 mm 3 mps 752 mmHg 62%

19 April, Monday

Time Temperature Precipitation Wind Pressure Humidity
00:00 +7°C° 0 mm 3 mps 752 mmHg 65%
01:00 +5°C° 0 mm 3 mps 753 mmHg 67%
02:00 +5°C° 0 mm 3 mps 753 mmHg 70%
03:00 +4°C° 0 mm 3 mps 753 mmHg 72%
04:00 +4°C° 0 mm 3 mps 754 mmHg 76%
05:00 +4°C° 0 mm 3 mps 754 mmHg 79%
06:00 +3°C° 0 mm 4 mps 754 mmHg 83%
07:00 +4°C° 0 mm 4 mps 754 mmHg 77%
08:00 +6°C° 0 mm 5 mps 754 mmHg 72%
09:00 +7°C° 0 mm 6 mps 754 mmHg 67%
10:00 +8°C° 0 mm 6 mps 754 mmHg 62%
11:00 +9°C° 0 mm 6 mps 754 mmHg 58%
12:00 +10°C° 0 mm 6 mps 754 mmHg 53%
13:00 +10°C° 0 mm 6 mps 754 mmHg 51%
14:00 +10°C° 0 mm 6 mps 754 mmHg 50%
15:00 +10°C° 0 mm 6 mps 753 mmHg 48%
16:00 +10°C° 0 mm 6 mps 753 mmHg 47%
17:00 +10°C° 0 mm 6 mps 753 mmHg 46%
18:00 +10°C° 0 mm 5 mps 753 mmHg 44%
19:00 +9°C° 0 mm 6 mps 753 mmHg 45%
20:00 +7°C° 0 mm 6 mps 753 mmHg 45%
21:00 +5°C° 0 mm 6 mps 753 mmHg 45%
22:00 +5°C° 0 mm 6 mps 753 mmHg 48%
23:00 +4°C° 0 mm 6 mps 753 mmHg 50%

20 April, Tuesday

Time Temperature Precipitation Wind Pressure Humidity
00:00 +3°C° 0 mm 6 mps 752 mmHg 52%
01:00 +3°C° 0 mm 6 mps 752 mmHg 54%
02:00 +2°C° 0 mm 6 mps 752 mmHg 56%
03:00 +2°C° 0 mm 6 mps 752 mmHg 57%
04:00 0°C° 0 mm 7 mps 752 mmHg 59%
05:00 0°C° 0 mm 7 mps 751 mmHg 61%
06:00 0°C° 0 mm 7 mps 751 mmHg 63%
07:00 +1°C° 0 mm 8 mps 751 mmHg 61%
08:00 +2°C° 0 mm 8 mps 750 mmHg 59%
09:00 +3°C° 0 mm 9 mps 750 mmHg 57%
10:00 +5°C° 0 mm 10 mps 750 mmHg 52%
11:00 +6°C° 0 mm 10 mps 749 mmHg 47%
12:00 +7°C° 0 mm 11 mps 748 mmHg 42%
13:00 +8°C° 0 mm 11 mps 748 mmHg 41%
14:00 +8°C° 0 mm 10 mps 748 mmHg 39%
15:00 +8°C° 0 mm 10 mps 747 mmHg 38%
16:00 +7°C° 0.1 mm 10 mps 747 mmHg 43%
17:00 +6°C° 0.1 mm 10 mps 747 mmHg 48%
18:00 +5°C° 0.1 mm 10 mps 747 mmHg 53%
19:00 +3°C° 0.9 mm 10 mps 747 mmHg 64%
20:00 +1°C° 0.9 mm 10 mps 747 mmHg 76%
21:00 0°C° 0.9 mm 10 mps 746 mmHg 87%
22:00 0°C° 0.5 mm 10 mps 746 mmHg 88%
23:00 0°C° 0.5 mm 10 mps 746 mmHg 88%
Show more